Temp
-2 -2 -3 -3 -3 -4 -4 -2 -4 -0 -1 4 2 1 1 1 2 2 2 2 2 3 3 3 3 3 3 3 3 3 3 3 3 3 3 3 3 3 3 3 2 2 2 1
-3 -2 -3 -4 -3 -3 -5 -6 -5 -4 0 1 2 1 2 1 1 2 2 2 2 3 3 3 3 4 4 3 3 3 3 3 3 3 3 3 3 3 3 3 3 3 3 2
-5 -4 -4 -2 1 -0 -1 -1 0 -3 5 1 2 1 1 1 2 3 3 3 4 4 3 3 3 4 3 3 3 3 4 3 3 3 3 3 3 3 3 3 3 2 2 2
-5 -5 -2 1 1 1 0 1 1 2 3 2 2 3 3 2 3 3 3 3 3 4 4 4 4 4 3 3 3 3 3 3 3 3 3 3 3 3 3 2 2 2 2 2
-5 -5 -1 2 2 2 1 1 2 2 3 2 2 3 2 3 3 3 3 3 3 4 4 4 4 4 3 3 3 3 3 3 3 3 3 3 3 2 2 2 2 2 2 2
-7 -6 -3 2 2 1 1 1 2 2 1 1 1 1 1 2 2 2 3 3 3 4 3 3 3 3 3 3 3 3 3 3 3 3 2 2 2 2 2 2 1 1 1 1
-7 -6 -2 1 2 1 1 1 1 1 1 1 1 1 1 1 2 2 3 3 3 3 3 3 4 4 3 3 3 3 3 3 3 2 2 2 2 2 2 1 1 1 1 0
-7 -6 -3 2 1 1 0 0 -0 -1 -1 -0 1 2 2 2 2 2 3 3 3 4 3 3 4 4 3 3 2 4 3 3 2 2 2 2 2 1 1 1 1 0 0 0
-1 2 2 1 0 -0 0 -0 -0 -1 -1 -0 1 2 2 3 3 3 3 3 3 4 4 3 3 4 4 3 3 3 3 3 2 2 2 1 1 1 1 0 0 -0 -0 -0
-2 1 1 0 -1 -0 -1 -1 -0 -0 -0 -0 1 1 2 2 2 3 3 3 3 4 4 3 3 3 4 3 3 4 4 3 2 2 1 1 1 1 0 -0 -0 -1 -1 -1
-0 1 1 0 -0 -1 -1 -0 -0 -0 -0 1 2 2 2 3 3 3 3 3 4 4 4 4 3 4 4 3 3 3 3 3 3 2 1 1 1 0 0 -0 -0 -0 -1 -1
-1 -0 -1 -0 -1 -0 -0 0 0 0 1 1 1 1 2 2 2 3 3 3 4 4 4 4 4 4 4 3 4 3 3 2 2 2 2 2 1 1 0 0 -0 -0 -1 -1
-3 -1 -0 2 0 -0 0 0 -0 1 1 1 1 1 1 2 2 2 2 3 3 3 3 3 3 3 3 3 3 2 2 2 2 1 1 1 1 1 1 -0 -1 -1 -2 -2
-4 -4 -1 -1 1 0 -0 -0 0 1 1 1 1 1 2 2 2 2 2 2 2 2 2 3 2 2 2 2 2 1 1 1 1 1 1 1 0 0 0 -0 -0 -1 -2 -2
-4 -4 -4 -2 -1 -1 -1 0 1 1 1 1 0 1 1 2 1 1 1 1 1 1 1 1 1 1 1 1 1 1 1 1 1 1 0 0 -0 -1 -1 -1 -1 -1 -2 -2
-3 -4 -4 -3 -2 -2 -1 -0 0 1 1 0 0 0 1 1 -0 -0 0 0 -0 -1 -1 -0 -0 -0 0 0 0 0 0 0 0 -0 -0 -1 -1 -1 -2 -2 -2 -2 -2 -2
-5 -4 -4 -3 -3 -3 -2 -1 -0 0 0 -1 -1 -0 0 -0 -1 -1 -1 -1 -2 -2 -1 -1 -1 -1 -1 -1 -1 -1 -1 -1 -1 -1 -1 -1 -2 -2 -2 -2 -2 -2 -3 -3
-6 -5 -5 -5 -4 -3 -3 -2 -1 -1 -1 -2 -2 -2 -2 -2 -2 -3 -3 -3 -3 -2 -2 -2 -2 -2 -2 -2 -2 -2 -2 -2 -2 -2 -2 -2 -2 -2 -2 -2 -2 -2 -3 -4
-6 -6 -6 -5 -4 -4 -3 -3 -3 -3 -3 -3 -4 -4 -4 -4 -4 -4 -4 -4 -4 -4 -3 -3 -3 -3 -3 -3 -3 -3 -3 -3 -2 -2 -2 -3 -3 -3 -3 -3 -3 -3 -3 -3
-7 -7 -6 -6 -6 -6 -5 -5 -5 -6 -5 -5 -5 -5 -5 -5 -5 -5 -5 -5 -5 -5 -5 -4 -4 -4 -4 -4 -4 -4 -3 -3 -3 -3 -3 -3 -3 -3 -3 -3 -3 -3 -3 -3
-7 -7 -7 -7 -7 -7 -7 -7 -7 -7 -7 -6 -6 -6 -6 -6 -6 -6 -6 -6 -6 -5 -5 -5 -5 -5 -5 -5 -5 -5 -4 -4 -4 -4 -4 -4 -4 -4 -4 -4 -4 -4 -3 -3
-7 -7 -8 -8 -8 -7 -8 -8 -7 -8 -8 -7 -7 -7 -7 -7 -7 -7 -7 -6 -6 -6 -6 -6 -6 -6 -6 -6 -5 -5 -5 -5 -5 -5 -5 -4 -4 -4 -4 -4 -4 -4 -4 -4
-9 -9 -8 -8 -8 -8 -8 -8 -7 -7 -7 -7 -8 -7 -7 -7 -7 -7 -6 -7 -7 -7 -7 -7 -7 -6 -6 -6 -6 -6 -5 -5 -5 -5 -6 -6 -6 -5 -5 -5 -5 -5 -5 -4
-9 -9 -9 -8 -8 -8 -7 -7 -7 -7 -7 -7 -7 -7 -7 -7 -7 -7 -7 -7 -7 -7 -7 -7 -7 -6 -6 -6 -6 -6 -5 -5 -6 -7 -7 -7 -7 -7 -7 -6 -6 -6 -6 -6
-9 -9 -8 -8 -8 -7 -7 -7 -7 -6 -7 -6 -6 -6 -6 -6 -6 -6 -6 -6 -7 -7 -6 -7 -7 -7 -7 -7 -7 -7 -7 -7 -7 -7 -8 -8 -8 -8 -8 -7 -7 -7 -7 -7
-9 -9 -9 -9 -8 -8 -7 -7 -6 -6 -6 -6 -6 -6 -6 -6 -6 -6 -6 -6 -6 -6 -6 -7 -7 -7 -7 -7 -7 -7 -8 -8 -8 -9 -9 -9 -9 -10 -9 -9 -10 -8 -8 -8
-11 -11 -10 -9 -9 -9 -9 -8 -7 -6 -6 -6 -6 -6 -7 -6 -6 -6 -6 -6 -6 -6 -6 -7 -7 -7 -7 -7 -8 -8 -9 -9 -9 -10 -10 -10 -10 -10 -10 -10 -9 -9 -9 -9
Height
3113 3111 3109 3107 3106 3105 3102 3100 3099 3090 3087 3084 3087 3086 3086 3084 3083 3081 3081 3080 3079 3077 3076 3074 3073 3071 3068 3066 3064 3061 3058 3056 3054 3052 3049 3046 3043 3040 3036 3032 3028 3025 3021 3017
3106 3105 3101 3096 3093 3093 3092 3091 3085 3086 3077 3083 3079 3078 3078 3078 3078 3077 3076 3075 3073 3072 3072 3071 3069 3067 3066 3065 3062 3059 3057 3055 3053 3051 3048 3046 3043 3040 3037 3033 3029 3025 3022 3018
3102 3099 3096 3088 3080 3080 3081 3081 3080 3079 3073 3076 3076 3076 3075 3074 3073 3073 3072 3070 3069 3069 3068 3067 3065 3064 3063 3061 3059 3058 3056 3054 3052 3050 3048 3045 3042 3039 3035 3031 3028 3024 3020 3017
3101 3096 3091 3081 3078 3077 3076 3075 3074 3071 3072 3072 3070 3070 3070 3070 3068 3068 3066 3065 3065 3064 3064 3063 3062 3061 3060 3058 3056 3055 3053 3052 3050 3048 3045 3043 3039 3036 3033 3030 3027 3024 3020 3017
3101 3096 3084 3079 3077 3076 3074 3073 3072 3071 3068 3067 3066 3066 3068 3065 3064 3064 3063 3062 3061 3060 3060 3059 3058 3057 3056 3055 3054 3051 3049 3048 3046 3044 3041 3039 3036 3033 3030 3027 3024 3021 3018 3015
3099 3098 3086 3078 3077 3076 3074 3074 3073 3071 3069 3067 3065 3064 3063 3061 3060 3058 3057 3057 3056 3056 3055 3055 3053 3052 3051 3050 3048 3046 3044 3043 3041 3039 3037 3034 3032 3029 3026 3023 3021 3018 3015 3012
3099 3096 3078 3075 3075 3075 3076 3078 3071 3069 3066 3065 3063 3061 3059 3057 3056 3054 3053 3052 3051 3050 3050 3048 3047 3046 3045 3043 3042 3040 3039 3037 3035 3033 3031 3028 3026 3023 3020 3018 3015 3012 3009 3006
3093 3092 3078 3074 3074 3075 3073 3069 3067 3064 3061 3057 3055 3054 3053 3051 3050 3048 3047 3046 3045 3044 3044 3041 3040 3039 3038 3037 3033 3033 3032 3030 3028 3026 3024 3022 3019 3017 3014 3012 3009 3006 3003 3000
3082 3075 3074 3072 3070 3067 3064 3060 3058 3055 3054 3050 3047 3046 3046 3045 3044 3043 3041 3040 3038 3037 3037 3035 3033 3031 3031 3031 3025 3025 3025 3023 3020 3019 3017 3015 3012 3010 3007 3004 3002 2999 2997 2994
3075 3070 3069 3065 3061 3059 3056 3052 3051 3048 3046 3043 3041 3040 3039 3038 3037 3036 3035 3033 3031 3030 3029 3029 3027 3025 3024 3024 3021 3018 3017 3016 3013 3011 3008 3005 3003 3001 2999 2997 2994 2991 2989 2986
3062 3058 3061 3057 3052 3051 3048 3046 3043 3040 3037 3034 3033 3032 3030 3030 3029 3028 3027 3026 3023 3021 3020 3019 3018 3016 3013 3012 3011 3010 3008 3007 3004 3002 2999 2996 2994 2992 2990 2988 2985 2983 2981 2978
3054 3055 3050 3045 3043 3042 3038 3036 3035 3029 3027 3026 3024 3022 3021 3019 3019 3018 3016 3015 3013 3011 3009 3007 3005 3003 3002 3000 2999 2998 2997 2996 2994 2992 2990 2988 2985 2983 2981 2979 2976 2973 2971 2968
3043 3044 3038 3034 3031 3033 3028 3026 3023 3019 3018 3015 3016 3013 3012 3010 3009 3007 3006 3005 3003 3002 3000 2998 2995 2994 2992 2992 2991 2990 2989 2987 2985 2983 2981 2978 2976 2973 2971 2968 2966 2964 2961 2959
3033 3031 3029 3030 3023 3019 3017 3016 3011 3009 3007 3005 3004 3003 3002 3001 3000 2999 2997 2995 2993 2992 2991 2989 2986 2984 2983 2982 2981 2980 2979 2978 2976 2974 2972 2970 2967 2965 2963 2961 2958 2956 2953 2949
3024 3023 3018 3019 3017 3013 3007 3002 3000 2999 2997 2996 2993 2992 2991 2990 2989 2989 2988 2987 2985 2984 2983 2981 2979 2978 2977 2975 2974 2972 2970 2969 2967 2965 2962 2960 2957 2954 2952 2950 2948 2946 2942 2940
3016 3016 3013 3011 3010 3006 3000 2995 2988 2988 2986 2985 2983 2981 2979 2977 2978 2979 2978 2977 2977 2976 2975 2974 2973 2972 2971 2969 2968 2966 2964 2961 2958 2956 2953 2950 2947 2945 2942 2940 2938 2936 2933 2931
3011 3011 3008 3006 3002 3000 2994 2988 2982 2979 2975 2973 2972 2972 2970 2968 2969 2970 2970 2970 2970 2969 2969 2968 2966 2965 2963 2962 2960 2957 2955 2953 2950 2948 2945 2943 2940 2937 2933 2930 2928 2926 2924 2921
3005 3004 3002 2997 2992 2989 2986 2981 2976 2971 2967 2964 2962 2961 2960 2961 2961 2963 2963 2964 2963 2963 2963 2961 2960 2958 2956 2954 2952 2949 2946 2943 2941 2938 2935 2932 2930 2928 2925 2922 2919 2917 2914 2911
3002 2999 2995 2992 2988 2984 2979 2975 2970 2966 2962 2959 2957 2956 2955 2955 2955 2956 2957 2958 2957 2956 2955 2954 2953 2951 2948 2946 2944 2941 2938 2936 2932 2929 2926 2922 2919 2917 2914 2912 2909 2906 2904 2902
2997 2993 2990 2986 2982 2977 2973 2969 2966 2963 2960 2957 2955 2953 2952 2952 2952 2952 2951 2951 2951 2950 2949 2948 2946 2943 2941 2938 2935 2932 2928 2925 2922 2919 2916 2913 2909 2906 2903 2900 2898 2896 2894 2891
2990 2987 2984 2981 2977 2974 2969 2965 2962 2960 2958 2956 2953 2951 2950 2949 2948 2948 2947 2946 2944 2943 2941 2940 2937 2935 2932 2929 2925 2921 2918 2914 2910 2908 2905 2902 2899 2895 2892 2889 2886 2884 2883 2881
2982 2979 2977 2975 2971 2968 2966 2962 2958 2955 2953 2951 2949 2947 2946 2944 2943 2941 2940 2939 2937 2934 2932 2930 2928 2924 2921 2917 2914 2910 2906 2902 2898 2895 2892 2889 2886 2884 2881 2878 2875 2873 2872 2871
2973 2969 2967 2965 2963 2961 2959 2958 2954 2950 2947 2944 2942 2941 2939 2938 2935 2932 2931 2932 2927 2925 2922 2919 2916 2913 2908 2904 2900 2896 2892 2889 2885 2882 2879 2876 2874 2872 2869 2866 2865 2863 2862 2861
2964 2961 2958 2956 2953 2951 2950 2949 2947 2944 2941 2937 2935 2933 2930 2927 2925 2923 2921 2918 2915 2912 2908 2906 2902 2898 2894 2890 2886 2882 2879 2875 2872 2869 2867 2864 2862 2860 2858 2856 2854 2853 2852 2851
2953 2950 2947 2946 2943 2941 2939 2937 2933 2932 2931 2929 2926 2924 2921 2918 2912 2910 2907 2905 2902 2899 2896 2893 2889 2885 2881 2877 2873 2870 2865 2862 2860 2858 2855 2853 2850 2849 2847 2846 2845 2845 2844 2844
2939 2936 2934 2933 2929 2927 2925 2923 2920 2920 2917 2915 2914 2911 2910 2907 2904 2900 2896 2892 2889 2886 2883 2880 2877 2873 2868 2864 2860 2857 2854 2851 2849 2847 2844 2842 2840 2839 2838 2837 2836 2836 2835 2835
2927 2925 2921 2918 2917 2914 2911 2909 2906 2906 2904 2901 2899 2898 2895 2893 2890 2887 2885 2881 2878 2875 2871 2867 2863 2859 2855 2852 2848 2846 2843 2841 2839 2837 2835 2833 2832 2830 2830 2829 2829 2828 2828 2827
Wind_Speed
18 20 23 26 27 26 32 36 24 28 28 18 20 21 25 27 25 19 14 15 15 14 11 10 9 9 10 11 12 13 13 13 14 15 16 17 18 20 20 21 20 20 20 19
25 22 23 29 33 36 37 36 44 42 44 20 5 10 11 12 14 16 17 18 18 14 13 12 10 10 11 12 12 13 14 14 15 16 18 19 19 20 20 20 21 21 20 20
9 13 24 25 11 15 24 33 34 38 16 19 19 20 18 18 19 18 18 20 18 15 14 13 12 12 13 13 13 15 16 16 16 17 18 19 19 20 20 20 20 19 19 19
12 17 4 4 12 16 18 18 16 18 10 9 11 15 20 20 20 18 19 19 18 15 15 15 14 15 15 15 15 16 16 17 18 18 18 18 19 19 20 20 19 19 19 18
5 8 20 3 6 7 7 11 9 13 10 9 13 14 11 17 18 18 18 18 17 17 17 17 17 17 17 17 17 18 19 19 20 20 20 20 20 20 20 20 20 19 19 19
4 5 4 2 9 7 7 5 12 14 13 12 10 11 12 15 17 18 18 19 18 18 18 18 19 18 18 18 18 20 21 21 21 21 21 21 22 22 22 22 21 20 19 19
15 10 14 5 3 3 3 5 16 21 22 22 20 18 16 17 18 19 19 19 19 19 19 20 21 20 20 20 20 23 22 23 23 23 23 23 22 22 23 22 22 22 20 20
13 9 10 3 8 7 12 22 26 27 28 32 29 24 22 22 21 21 21 21 22 21 21 23 24 23 23 22 27 26 24 25 25 25 25 24 24 25 24 24 24 24 23 22
12 9 20 28 26 24 31 35 29 28 26 30 27 23 21 20 21 24 24 24 25 25 24 25 27 29 28 26 32 31 28 28 29 28 27 27 27 27 26 26 26 25 25 25
28 21 25 32 32 28 22 24 27 28 27 29 30 26 23 23 22 22 24 26 28 29 29 28 30 33 33 32 33 35 33 30 31 30 29 30 29 29 29 28 28 26 26 26
38 35 27 25 22 21 31 34 35 35 36 37 35 33 31 29 28 29 29 29 32 34 35 36 37 37 37 37 36 36 35 33 33 33 32 31 31 30 30 29 30 30 30 29
24 23 30 32 31 28 29 29 28 31 34 36 38 38 35 35 35 35 35 34 35 34 35 34 35 35 35 36 36 35 34 32 32 33 33 33 33 32 32 32 33 33 31 30
33 24 27 33 38 30 34 32 33 36 35 33 29 33 33 34 35 36 35 34 32 31 30 29 29 29 30 31 31 30 30 30 31 31 31 32 33 32 32 33 33 33 32 32
35 28 29 27 32 38 36 31 34 33 32 35 34 33 34 36 34 31 30 30 28 27 26 26 26 25 23 22 23 24 24 25 26 28 30 31 32 34 34 33 34 33 34 35
31 31 32 21 28 31 35 36 36 36 33 30 32 38 41 41 38 32 30 30 28 26 24 23 22 21 20 20 21 22 23 26 28 29 31 33 33 34 35 35 34 33 34 33
25 17 18 20 20 27 33 36 40 36 35 31 27 28 31 33 32 32 30 28 24 22 21 21 21 22 23 23 24 26 27 28 29 30 31 33 34 33 33 33 32 30 28 29
18 19 23 24 28 28 31 31 33 34 33 32 33 32 28 27 28 27 26 23 22 21 21 21 21 21 22 23 24 25 26 27 27 27 28 30 30 30 30 30 31 31 30 31
19 21 24 30 32 33 33 33 32 30 27 25 23 22 20 20 20 20 20 18 18 18 18 19 20 21 22 23 23 24 24 26 27 29 30 30 32 33 34 34 33 33 32 31
19 20 23 23 26 29 28 26 26 22 21 19 16 16 14 14 15 16 16 15 15 14 15 16 17 18 20 21 23 26 28 30 30 31 32 33 33 33 34 36 35 34 32 30
17 22 25 25 22 22 19 17 18 19 17 13 12 12 12 12 13 13 13 13 14 14 16 18 21 24 27 30 32 34 36 37 36 37 36 36 36 34 34 35 35 34 32 29
23 23 21 20 22 24 21 19 17 15 16 15 13 13 13 13 14 15 16 16 17 20 22 26 29 32 36 38 38 39 41 40 38 38 39 39 38 37 36 35 34 32 30 28
28 24 19 19 19 20 24 28 25 20 20 21 20 20 20 20 21 22 22 24 27 31 33 37 41 44 46 47 47 46 44 43 41 40 40 40 39 37 35 35 33 31 29 28
32 21 21 21 25 26 22 23 27 30 28 26 27 28 30 30 32 35 36 35 40 42 44 45 47 48 47 46 44 44 43 44 43 41 39 39 38 37 35 34 32 30 28 28
37 36 33 30 33 35 35 30 29 29 31 29 30 33 36 38 39 39 40 41 42 42 42 43 43 44 44 43 41 40 41 41 38 36 36 37 38 38 32 32 30 27 27 26
47 44 41 40 45 47 47 44 41 39 36 35 35 34 34 37 40 39 39 40 41 43 44 45 45 44 42 42 42 41 40 38 36 36 36 36 35 30 29 27 25 25 23 24
48 47 50 51 51 50 50 49 46 44 44 44 40 36 35 35 35 37 39 40 41 42 44 46 46 45 45 43 42 39 36 35 35 34 34 31 28 25 25 26 23 25 24 23
37 37 35 35 31 32 33 35 39 45 45 46 51 46 40 36 36 36 36 37 38 39 40 43 44 44 43 39 36 35 33 33 33 33 32 30 27 21 21 22 22 21 20 20
Wind_Direction
274 274 275 273 266 259 248 254 242 264 274 279 277 271 268 274 276 275 273 273 266 264 272 282 294 310 317 329 338 345 348 351 352 353 355 358 1 3 6 9 11 11 11 12
294 290 278 272 267 258 250 249 258 265 279 304 305 291 266 252 247 258 269 266 262 263 268 274 284 295 303 313 325 334 334 342 341 342 347 351 352 354 356 360 2 3 4 3
277 291 300 290 285 262 263 263 268 257 289 282 279 285 273 258 261 269 267 259 256 254 258 265 276 285 293 306 318 324 328 332 333 336 337 339 342 343 346 349 351 352 353 354
284 313 253 283 305 300 296 291 286 299 330 316 284 255 259 269 269 266 265 261 263 260 262 268 277 284 292 302 310 314 319 321 322 323 325 329 330 333 336 338 339 341 341 342
266 283 290 328 15 11 357 34 39 15 355 276 279 279 282 269 269 268 268 265 263 264 265 270 277 285 292 297 302 308 310 312 313 316 317 319 321 323 325 327 330 333 333 334
248 277 258 309 346 3 15 54 355 351 6 348 323 303 286 279 273 269 263 259 258 261 265 270 275 283 288 291 295 295 299 301 304 307 309 311 313 315 317 319 320 321 322 322
241 264 279 288 303 356 348 324 326 322 320 319 311 302 292 283 278 273 266 262 261 262 265 268 272 275 278 283 287 284 289 291 296 298 300 302 303 305 306 308 309 309 310 310
204 238 267 64 332 315 295 304 305 301 298 300 300 293 290 284 278 273 271 268 267 266 266 269 273 274 273 278 274 280 280 284 287 289 292 294 296 298 300 301 301 301 302 303
232 257 291 303 301 296 301 299 298 295 292 284 289 294 283 277 276 277 275 272 273 272 270 271 274 275 274 272 274 278 280 281 283 287 290 291 292 293 294 295 296 298 300 299
284 280 304 304 295 293 284 288 290 292 289 285 286 288 287 285 286 288 287 285 281 279 277 277 281 284 285 282 281 284 286 284 283 285 284 285 286 288 290 292 293 293 294 295
293 295 302 291 291 276 281 284 286 285 282 278 279 281 284 281 281 282 283 284 285 284 283 283 281 281 282 283 283 283 284 283 282 282 281 283 285 285 286 288 289 290 292 294
289 311 296 286 285 288 288 288 286 287 287 284 278 279 276 277 279 279 280 282 284 282 282 281 280 277 273 272 275 279 281 281 279 278 279 282 282 281 284 286 287 288 290 290
297 291 280 283 294 288 285 292 283 279 287 287 283 282 286 289 285 281 281 281 282 282 283 284 283 279 276 279 281 280 279 280 281 282 283 284 284 283 283 282 285 286 287 289
294 295 273 278 281 291 293 291 289 286 283 277 273 273 282 290 291 286 284 283 282 281 280 281 281 280 279 276 277 280 282 283 284 285 287 288 288 288 288 286 287 289 289 290
280 282 293 288 288 294 295 295 291 294 293 281 275 276 275 277 273 279 281 280 278 278 279 281 280 279 279 279 279 278 280 282 284 285 286 286 286 286 288 289 288 288 289 288
287 285 286 299 302 301 300 297 295 293 288 284 281 286 285 276 265 270 274 273 272 274 276 277 280 284 287 287 288 289 290 290 289 289 288 288 288 289 289 289 290 289 288 287
297 288 283 287 296 304 306 308 302 298 293 281 278 281 281 275 268 269 266 264 267 271 275 279 283 285 286 288 290 291 293 295 297 299 298 298 296 293 290 289 287 286 286 285
306 309 309 310 312 309 307 312 306 295 292 287 284 279 274 270 265 261 261 263 266 271 276 280 283 287 289 292 295 297 299 300 300 299 296 295 293 293 292 290 289 288 286 284
307 317 318 314 308 304 302 310 321 308 294 288 284 279 272 262 255 258 261 264 266 268 272 278 285 291 297 300 302 303 304 302 301 299 297 294 291 290 290 290 289 288 285 284
302 302 304 309 311 311 313 317 324 324 317 306 294 281 271 263 259 256 250 248 252 266 276 284 290 294 297 300 300 302 300 297 298 297 295 294 293 291 289 289 289 286 282 279
289 298 303 318 327 326 308 313 316 314 314 310 303 292 281 269 258 252 251 258 274 277 284 290 295 299 300 303 301 299 299 300 298 298 299 294 291 291 290 290 286 281 276 273
281 283 289 299 316 333 328 324 311 296 294 296 295 288 278 274 270 267 269 274 276 283 287 291 295 298 300 300 299 296 298 299 299 296 295 294 290 288 289 290 285 277 272 273
286 273 282 293 304 303 306 324 317 314 308 298 292 291 290 288 286 286 284 282 285 288 291 294 295 296 297 297 299 298 296 295 295 294 292 291 289 286 286 286 282 276 274 273
292 290 284 286 302 307 305 300 304 305 308 308 304 297 291 290 290 288 289 289 292 295 297 298 298 298 297 298 297 296 295 294 292 291 290 289 289 285 282 285 279 275 275 275
295 287 289 285 291 295 302 301 297 302 302 301 301 300 300 298 296 298 294 295 293 293 295 297 298 298 298 299 299 296 294 293 292 290 291 290 284 279 283 280 280 278 277 276
296 295 290 290 293 298 300 298 296 295 298 298 297 297 297 297 297 293 291 291 293 294 295 295 296 295 295 296 296 295 293 290 289 290 289 283 275 276 276 276 284 284 276 271
293 299 297 290 289 290 289 288 290 291 291 292 292 293 295 296 296 294 292 292 291 293 291 291 292 293 294 293 291 289 289 289 289 287 284 283 277 277 286 286 278 273 270 267